User: anonymous   Login
Location: Bangkok
(13.7500°N, 100.5170°E)
Time: 07:18:16
(UTC+07:00)
Language:

SPOT 1/Viking Rocket - Orbit

View from above orbital plane
View from above orbital plane
View from above satellite
View from above satellite

Ground track
Ground track

The orbit data is extracted from the following two-line orbital elements,

1 16615U 86019C   17175.58298509 +.00000022 +00000-0 +24615-4 0  9996
2 16615 098.6112 242.7533 0012239 029.5712 100.6455 14.31660240640476
Epoch (UTC): 24 June 2017 13:59:29
Eccentricity: 0.0012239
inclination: 98.6112°
perigee height: 777 km
apogee height: 795 km
right ascension of ascending node: 242.7533°
argument of perigee: 29.5712°
revolutions per day: 14.31660240
mean anomaly at epoch: 100.6455°
orbit number at epoch: 64047

The dashed part of the orbit path shows where the satellite is in the earth's shadow,  

DLR